sat.trackr.live / text

‹ back to catalog

2025-155L

NORAD 64886 · 2025-155L

PAYLOAD ACTIVE UNKNOWN

§ Identity

Operator
Country
TBD
Launch date
2025-07-25
Launch site
VOSTO
Launch vehicle
Mass (kg)
RCS (m²)

External: N2YO · Heavens-Above · Gunter

§ Orbital elements

Epoch: 2026-09-21T21:43:03.410112Z

Period
93.04 min
Inclination
97.4553°
Eccentricity
0.0007285
Mean motion
15.47709254 rev/d
Perigee alt
418.5 km
Apogee alt
428.4 km
Semi-major
6,801.6 km
B*
6.1480e-4
RAAN
238.2567°
Arg perigee
144.9054°
Mean anomaly
215.2677°
Rev number
9,586

§ Raw data

2025-155L1 64886U 25155L   26264.90490058  .00031828  00000+0  61480-3 0  99982 64886  97.4553 238.2567 0007285 144.9054 215.2677 15.47709254 95861

JSON: /api/v1/satellites/64886 · /tle

For live sub-satellite position, see the globe view (requires WebGL).

§ Visibility from observer

Set your observer location to see the next 7 days of passes ≥ 10°. The values pass through the URL so the page stays shareable.

No JS? Fill the form by hand. The geolocation button needs JavaScript.